TimeEST,TemperatureF,Dew PointF,Humidity,Sea Level PressureIn,VisibilityMPH,Wind Direction,Wind SpeedMPH,Gust SpeedMPH,PrecipitationIn,Events,Conditions,WindDirDegrees,DateUTC
12:54 AM,33.1,25.0,72,30.45,8.0,NNW,3.5,-,N/A,,Overcast,340,2013-01-27 05:54:00
1:54 AM,33.1,23.0,66,30.47,9.0,North,3.5,-,N/A,,Overcast,10,2013-01-27 06:54:00
2:54 AM,33.1,19.9,59,30.48,10.0,North,5.8,-,N/A,,Overcast,10,2013-01-27 07:54:00
3:54 AM,32.0,19.9,61,30.48,10.0,NNE,3.5,-,N/A,,Overcast,30,2013-01-27 08:54:00
4:54 AM,30.9,21.0,67,30.48,9.0,NE,3.5,-,N/A,,Overcast,50,2013-01-27 09:54:00
5:54 AM,30.0,19.0,64,30.49,9.0,NE,6.9,-,N/A,,Clear,40,2013-01-27 10:54:00
6:54 AM,28.4,19.4,69,30.52,10.0,NE,4.6,-,N/A,,Clear,40,2013-01-27 11:54:00
7:54 AM,28.0,19.9,72,30.56,8.0,North,3.5,-,N/A,,Clear,360,2013-01-27 12:54:00
8:54 AM,34.0,19.0,54,30.58,10.0,NE,6.9,-,N/A,,Clear,40,2013-01-27 13:54:00
9:54 AM,37.0,19.0,48,30.61,10.0,ENE,6.9,-,N/A,,Clear,60,2013-01-27 14:54:00
10:54 AM,37.9,19.0,47,30.61,10.0,NE,6.9,-,N/A,,Clear,40,2013-01-27 15:54:00
11:54 AM,37.9,18.0,45,30.59,10.0,Variable,4.6,-,N/A,,Partly Cloudy,0,2013-01-27 16:54:00
12:54 PM,41.0,19.0,41,30.57,10.0,North,4.6,-,N/A,,Partly Cloudy,10,2013-01-27 17:54:00
1:54 PM,39.0,19.9,46,30.54,10.0,Calm,Calm,-,N/A,,Clear,0,2013-01-27 18:54:00
2:54 PM,41.0,19.9,43,30.53,10.0,Variable,3.5,-,N/A,,Clear,0,2013-01-27 19:54:00
3:54 PM,39.0,19.9,46,30.53,10.0,ESE,8.1,-,N/A,,Clear,120,2013-01-27 20:54:00
4:54 PM,37.0,21.0,52,30.55,10.0,South,6.9,-,N/A,,Clear,180,2013-01-27 21:54:00
5:54 PM,36.0,19.9,52,30.56,10.0,SSE,4.6,-,N/A,,Clear,160,2013-01-27 22:54:00
6:54 PM,34.0,19.9,56,30.57,10.0,Calm,Calm,-,N/A,,Clear,0,2013-01-27 23:54:00
7:54 PM,32.0,19.9,61,30.56,10.0,Calm,Calm,-,N/A,,Clear,0,2013-01-28 00:54:00
8:54 PM,30.9,21.0,67,30.53,8.0,SSE,3.5,-,N/A,,Clear,150,2013-01-28 01:54:00
9:54 PM,30.0,19.9,66,30.54,7.0,SSE,5.8,-,N/A,,Clear,150,2013-01-28 02:54:00
10:54 PM,28.9,18.0,64,30.55,8.0,Calm,Calm,-,N/A,,Clear,0,2013-01-28 03:54:00
11:54 PM,30.9,19.9,64,30.53,9.0,Calm,Calm,-,N/A,,Clear,0,2013-01-28 04:54:00